DW5868 Weather Reports


time (UTC)temp
C
wind
direction
speed
KPH
gust
KPH
rain 1hr
cm
rain 24hr
cm
rain mn
cm
humidity
%
barometer
mb
20260510100003 6 276 1.6 4.8 0.00 0.00 0.00 49 1011.1
20260510094502 5 290 1.6 3.2 0.00 0.00 0.00 49 1011.2
20260510093109 6 277 1.6 4.8 0.00 0.00 0.00 48 1011.2
20260510091559 6 275 1.6 4.8 0.00 0.00 0.00 49 1011.3
20260510090058 6 277 1.6 3.2 0.00 0.00 0.00 48 1011.3
20260510084602 6 284 1.6 3.2 0.00 0.00 0.00 48 1011.4
20260510083055 6 276 1.6 3.2 0.00 0.00 0.00 47 1011.3
20260510081622 6 289 3.2 3.2 0.00 0.00 0.00 46 1011.4
20260510080054 7 275 1.6 4.8 0.00 0.00 0.00 45 1011.5
20260510074551 6 275 1.6 3.2 0.00 0.00 0.00 48 1011.5
20260510073058 7 279 1.6 3.2 0.00 0.00 0.00 46 1011.6
20260510071549 7 279 1.6 3.2 0.00 0.00 0.00 45 1011.6
20260510070047 8 275 1.6 3.2 0.00 0.00 0.00 43 1011.5
20260510064555 9 276 1.6 4.8 0.00 0.00 0.00 39 1011.4
20260510063048 9 277 0.0 4.8 0.00 0.00 0.00 35 1011.3
20260510061548 10 207 0.0 6.4 0.00 0.00 0.00 34 1011.2
20260510060049 10 273 0.0 6.4 0.00 0.00 0.00 37 1011.1
20260510054545 10 281 3.2 9.7 0.00 0.00 0.00 37 1011.1
20260510053102 10 275 0.0 6.4 0.00 0.00 0.00 38 1011.1
20260510051551 10 267 0.0 1.6 0.00 0.00 0.00 36 1010.9
20260510050050 10 282 0.0 4.8 0.00 0.00 0.00 40 1010.6
20260510044555 9 277 0.0 4.8 0.00 0.00 0.00 49 1010.5
20260510043051 9 277 1.6 4.8 0.00 0.00 0.00 52 1010.3
20260510041543 10 263 0.0 3.2 0.00 0.00 0.00 48 1010.1
20260510040045 10 275 0.0 3.2 0.00 0.00 0.00 47 1010.0
20260510034543 11 275 0.0 1.6 0.00 0.00 0.00 43 1009.8
20260510033056 12 282 0.0 3.2 0.00 0.00 0.00 42 1009.4
20260510031541 12 302 0.0 1.6 0.00 0.00 0.00 37 1009.2
20260510030046 13 305 0.0 1.6 0.00 0.00 0.00 34 1009.0
20260510024541 15 281 0.0 9.7 0.00 0.00 0.00 32 1008.8
20260510023040 15 223 0.0 9.7 0.00 0.00 0.00 33 1008.8
20260510021540 16 284 1.6 11.3 0.00 0.00 0.00 27 1008.6
20260510020039 18 255 6.4 16.1 0.00 0.00 0.00 26 1008.4
20260510014541 19 195 1.6 9.7 0.00 0.00 0.00 24 1008.4
20260510013038 19 232 0.0 9.7 0.00 0.00 0.00 25 1008.3
20260510011538 19 273 6.4 22.5 0.00 0.00 0.00 23 1008.3
20260510010037 20 294 6.4 16.1 0.00 0.00 0.00 23 1008.2
20260510004540 21 268 1.6 12.9 0.00 0.00 0.00 22 1008.3
20260510003043 21 294 3.2 12.9 0.00 0.00 0.00 22 1008.2
20260510001535 21 57 1.6 8.0 0.00 0.00 0.00 17 1008.4
20260510000035 21 80 0.0 12.9 0.00 0.00 0.00 17 1008.3
20260509234545 21 260 8.0 12.9 0.00 0.00 0.00 19 1008.3
20260509233031 21 60 1.6 11.3 0.00 0.00 0.00 19 1008.4
20260509231532 21 61 3.2 14.5 0.00 0.00 0.00 17 1008.6
20260509230029 21 167 1.6 8.0 0.00 0.00 0.00 20 1008.5
20260509224527 21 223 4.8 17.7 0.00 0.00 0.00 17 1008.9
20260509223025 21 225 1.6 16.1 0.00 0.00 0.00 17 1009.0
20260509221526 21 242 4.8 16.1 0.00 0.00 0.00 17 1009.2
20260509220023 21 161 3.2 16.1 0.00 0.00 0.00 19 1009.3
20260509214522 21 114 11.3 20.9 0.00 0.00 0.00 16 1009.6
20260509213020 20 350 3.2 8.0 0.00 0.00 0.00 17 1009.8
20260509211519 21 102 3.2 17.7 0.00 0.00 0.00 18 1010.0
20260509210020 20 138 3.2 12.9 0.00 0.00 0.00 19 1009.9
20260509204517 20 32 6.4 14.5 0.00 0.00 0.00 19 1010.0
20260509203018 20 71 3.2 17.7 0.00 0.00 0.00 19 1010.2
20260509201515 21 80 3.2 14.5 0.00 0.00 0.00 21 1010.2
20260509200014 20 119 3.2 12.9 0.00 0.00 0.00 23 1010.4
20260509194514 20 257 1.6 8.0 0.00 0.00 0.00 22 1010.5
20260509193012 19 70 4.8 9.7 0.00 0.00 0.00 25 1010.7
20260509191512 19 53 6.4 12.9 0.00 0.00 0.00 24 1010.9
20260509190020 18 129 4.8 17.7 0.00 0.00 0.00 24 1010.8
20260509184513 18 82 4.8 11.3 0.00 0.00 0.00 24 1010.9
20260509183014 19 245 3.2 11.3 0.00 0.00 0.00 25 1011.0
20260509181514 18 94 3.2 9.7 0.00 0.00 0.00 25 1011.1
20260509180005 18 134 3.2 4.8 0.00 0.00 0.00 27 1011.1
20260509174512 17 112 4.8 11.3 0.00 0.00 0.00 26 1011.1
20260509173003 17 12 1.6 16.1 0.00 0.00 0.00 28 1011.1
20260509171501 16 142 1.6 8.0 0.00 0.00 0.00 27 1011.0
20260509170002 16 44 0.0 8.0 0.00 0.00 0.00 29 1011.1
20260509164600 16 119 1.6 11.3 0.00 0.00 0.00 27 1011.1
20260509163115 16 121 0.0 8.0 0.00 0.00 0.00 33 1011.0
20260509161559 15 133 0.0 11.3 0.00 0.00 0.00 32 1011.1
20260509160058 16 109 1.6 4.8 0.00 0.00 0.00 32 1011.0
20260509154555 15 27 0.0 6.4 0.00 0.00 0.00 33 1011.1
20260509153055 15 77 0.0 4.8 0.00 0.00 0.00 32 1011.1
20260509151553 14 47 0.0 3.2 0.00 0.00 0.00 32 1011.1
20260509150104 14 87 0.0 3.2 0.00 0.00 0.00 35 1011.1
20260509144653 14 129 0.0 1.6 0.00 0.00 0.00 37 1011.1
20260509143050 13 277 0.0 0.0 0.00 0.00 0.00 41 1011.2
20260509141545 10 277 0.0 0.0 0.00 0.00 0.00 53 1011.2
20260509140040 7 277 0.0 0.0 0.00 0.00 0.00 56 1011.1
20260509134537 6 277 0.0 0.0 0.00 0.00 0.00 60 1010.8
20260509133035 -17 0.0 0.0 0.00 0.00 0.00 1010.7
20260509131537 -17 0.0 0.0 0.00 0.00 0.00 1010.5
20260509130026 -17 0.0 0.0 0.00 0.00 0.00 1010.4
20260509124523 -17 0.0 0.0 0.00 0.00 0.00 1010.4
20260509123019 -17 0.0 0.0 0.00 0.00 0.00 1010.7
20260509121524 3 281 0.0 1.6 0.00 0.00 0.00 63 1010.8
20260509120016 3 282 0.0 1.6 0.00 0.00 0.00 62 1010.5
20260509114512 3 279 0.0 1.6 0.00 0.00 0.00 63 1010.4
20260509113011 3 277 0.0 1.6 0.00 0.00 0.00 62 1010.2
20260509111512 3 281 0.0 1.6 0.00 0.00 0.00 62 1010.1
20260509110012 3 280 0.0 3.2 0.00 0.00 0.00 64 1010.2
20260509104527 3 276 0.0 3.2 0.00 0.00 0.00 64 1010.1
20260509103007 3 280 0.0 3.2 0.00 0.00 0.00 63 1010.0
20260509101508 5 279 0.0 1.6 0.00 0.00 0.00 61 1010.0